| time (UTC) | temp F | wind direction | speed knots | gust knots | rain 1hr in | rain 24hr in | rain mn in | humidity % | barometer mb |
| 20260507031002 | 49 | 321 | 1.7 | 4.3 | 0.00 | 0.60 | 0.60 | 90 | 1008.9 |
| 20260507030502 | 49 | 282 | 0.9 | 7.0 | 0.01 | 0.60 | 0.60 | 90 | 1008.8 |
| 20260507030004 | 49 | 34 | 1.7 | 7.0 | 0.02 | 0.60 | 0.60 | 90 | 1008.6 |
| 20260507025503 | 49 | 279 | 0.9 | 7.0 | 0.02 | 0.60 | 0.60 | 90 | 1008.7 |
| 20260507025002 | 49 | 325 | 0.9 | 7.0 | 0.03 | 0.60 | 0.60 | 90 | 1008.7 |
| 20260507024507 | 50 | 265 | 0.9 | 7.0 | 0.03 | 0.60 | 0.60 | 90 | 1008.6 |
| 20260507024006 | 50 | 9 | 0.9 | 7.0 | 0.03 | 0.60 | 0.60 | 90 | 1008.5 |
| 20260507023502 | 50 | 314 | 1.7 | 5.2 | 0.03 | 0.60 | 0.60 | 90 | 1008.5 |
| 20260507023012 | 50 | 336 | 1.7 | 5.2 | 0.03 | 0.60 | 0.60 | 89 | 1008.4 |
| 20260507022503 | 50 | 255 | 1.7 | 7.0 | 0.03 | 0.60 | 0.60 | 89 | 1008.6 |
| 20260507022010 | 50 | 328 | 2.6 | 10.4 | 0.03 | 0.60 | 0.60 | 89 | 1008.6 |
| 20260507021515 | 50 | 334 | 1.7 | 10.4 | 0.03 | 0.60 | 0.60 | 88 | 1008.6 |
| 20260507021007 | 51 | 334 | 2.6 | 8.7 | 0.03 | 0.60 | 0.60 | 88 | 1008.7 |
| 20260507020503 | 51 | 323 | 2.6 | 8.7 | 0.02 | 0.58 | 0.58 | 88 | 1008.7 |
| 20260507020005 | 51 | 15 | 1.7 | 12.2 | 0.01 | 0.58 | 0.58 | 87 | 1008.8 |
| 20260507015502 | 51 | 38 | 6.1 | 12.2 | 0.01 | 0.58 | 0.58 | 87 | 1008.5 |
| 20260507015002 | 52 | 48 | 6.1 | 13.9 | 0.00 | 0.57 | 0.57 | 87 | 1008.3 |
| 20260507014515 | 52 | 20 | 7.8 | 14.8 | 0.00 | 0.57 | 0.57 | 87 | 1008.1 |
| 20260507014002 | 52 | 16 | 9.6 | 23.5 | 0.01 | 0.57 | 0.57 | 87 | 1008.2 |
| 20260507013501 | 53 | 29 | 9.6 | 23.5 | 0.01 | 0.57 | 0.57 | 88 | 1008.0 |
| 20260507013022 | 53 | 55 | 8.7 | 16.5 | 0.02 | 0.57 | 0.57 | 89 | 1008.0 |
| 20260507012503 | 54 | 54 | 9.6 | 13.9 | 0.02 | 0.57 | 0.57 | 90 | 1007.9 |
| 20260507012011 | 54 | 46 | 6.1 | 11.3 | 0.02 | 0.57 | 0.57 | 91 | 1007.6 |
| 20260507011529 | 55 | 47 | 7.0 | 12.2 | 0.02 | 0.57 | 0.57 | 91 | 1007.4 |
| 20260507011005 | 55 | 59 | 4.3 | 12.2 | 0.02 | 0.57 | 0.57 | 92 | 1007.2 |
| 20260507010504 | 56 | 57 | 7.8 | 11.3 | 0.03 | 0.57 | 0.57 | 92 | 1006.9 |
| 20260507010018 | 56 | 20 | 4.3 | 8.7 | 0.03 | 0.57 | 0.57 | 92 | 1006.9 |
| 20260507005506 | 56 | 39 | 6.1 | 8.7 | 0.04 | 0.57 | 0.57 | 92 | 1006.8 |
| 20260507005007 | 57 | 9 | 4.3 | 7.8 | 0.05 | 0.57 | 0.57 | 93 | 1006.8 |
| 20260507004502 | 57 | 75 | 3.5 | 5.2 | 0.06 | 0.57 | 0.57 | 92 | 1006.4 |
| 20260507004002 | 57 | 48 | 2.6 | 8.7 | 0.06 | 0.56 | 0.56 | 93 | 1006.4 |
| 20260507003503 | 57 | 116 | 1.7 | 8.7 | 0.07 | 0.56 | 0.56 | 92 | 1006.3 |
| 20260507003005 | 57 | 291 | 0.9 | 3.5 | 0.08 | 0.55 | 0.55 | 93 | 1006.3 |
| 20260507002502 | 57 | 9 | 0.9 | 4.3 | 0.09 | 0.55 | 0.55 | 93 | 1006.3 |
| 20260507002004 | 57 | 9 | 1.7 | 7.8 | 0.09 | 0.55 | 0.55 | 93 | 1006.1 |
| 20260507001511 | 57 | 51 | 0.9 | 7.8 | 0.09 | 0.55 | 0.55 | 93 | 1006.0 |
| 20260507001003 | 58 | 51 | 3.5 | 13.0 | 0.09 | 0.55 | 0.55 | 92 | 1005.9 |
| 20260507000511 | 58 | 265 | 3.5 | 13.0 | 0.09 | 0.54 | 0.54 | 92 | 1005.8 |
| 20260507000030 | 59 | 15 | 6.1 | 10.4 | 0.09 | 0.54 | 0.54 | 93 | 1005.6 |
| 20260506235504 | 59 | 195 | 3.5 | 9.6 | 0.08 | 0.52 | 0.52 | 93 | 1005.3 |
| 20260506235006 | 59 | 205 | 5.2 | 10.4 | 0.07 | 0.52 | 0.52 | 93 | 1005.3 |
| 20260506234520 | 59 | 220 | 6.1 | 10.4 | 0.06 | 0.51 | 0.51 | 94 | 1005.2 |
| 20260506234011 | 59 | 270 | 3.5 | 7.0 | 0.05 | 0.50 | 0.50 | 93 | 1005.1 |
| 20260506233509 | 59 | 224 | 2.6 | 9.6 | 0.05 | 0.49 | 0.49 | 93 | 1005.0 |
| 20260506233004 | 59 | 224 | 5.2 | 10.4 | 0.03 | 0.47 | 0.47 | 93 | 1004.9 |
| 20260506232503 | 59 | 200 | 7.0 | 10.4 | 0.03 | 0.46 | 0.46 | 93 | 1004.8 |
| 20260506232003 | 59 | 196 | 6.1 | 10.4 | 0.03 | 0.46 | 0.46 | 93 | 1004.7 |
| 20260506231507 | 59 | 221 | 5.2 | 10.4 | 0.03 | 0.46 | 0.46 | 93 | 1004.7 |
| 20260506231002 | 59 | 208 | 4.3 | 11.3 | 0.03 | 0.46 | 0.46 | 93 | 1004.5 |
| 20260506230504 | 59 | 187 | 5.2 | 11.3 | 0.02 | 0.45 | 0.45 | 93 | 1004.6 |
| 20260506230016 | 59 | 186 | 6.1 | 10.4 | 0.03 | 0.45 | 0.45 | 93 | 1004.6 |
| 20260506225509 | 59 | 205 | 6.1 | 10.4 | 0.03 | 0.45 | 0.45 | 93 | 1004.6 |
| 20260506225006 | 59 | 220 | 7.0 | 11.3 | 0.04 | 0.45 | 0.45 | 93 | 1004.6 |
| 20260506224521 | 59 | 225 | 7.8 | 13.9 | 0.05 | 0.45 | 0.45 | 93 | 1004.6 |
| 20260506224007 | 59 | 224 | 6.1 | 13.9 | 0.05 | 0.45 | 0.45 | 93 | 1004.7 |
| 20260506223507 | 59 | 203 | 7.8 | 13.9 | 0.05 | 0.44 | 0.44 | 93 | 1004.7 |
| 20260506223025 | 59 | 193 | 5.2 | 12.2 | 0.05 | 0.44 | 0.44 | 93 | 1004.7 |
| 20260506222510 | 59 | 208 | 7.0 | 12.2 | 0.04 | 0.43 | 0.43 | 93 | 1004.7 |
| 20260506222011 | 59 | 221 | 5.2 | 10.4 | 0.05 | 0.43 | 0.43 | 93 | 1004.7 |
| 20260506221526 | 60 | 188 | 6.1 | 10.4 | 0.05 | 0.43 | 0.43 | 93 | 1004.8 |
| 20260506221007 | 60 | 205 | 6.1 | 12.2 | 0.05 | 0.43 | 0.43 | 93 | 1004.9 |
| 20260506220503 | 60 | 217 | 7.0 | 12.2 | 0.05 | 0.43 | 0.43 | 93 | 1004.8 |
| 20260506220012 | 60 | 194 | 7.0 | 12.2 | 0.05 | 0.42 | 0.42 | 93 | 1004.8 |
| 20260506215503 | 60 | 198 | 7.0 | 13.0 | 0.05 | 0.42 | 0.42 | 92 | 1004.8 |
| 20260506215007 | 60 | 217 | 7.0 | 13.0 | 0.04 | 0.41 | 0.41 | 92 | 1004.8 |
| 20260506214515 | 60 | 219 | 6.1 | 13.9 | 0.04 | 0.40 | 0.40 | 92 | 1004.8 |
| 20260506214008 | 60 | 171 | 7.8 | 13.9 | 0.04 | 0.40 | 0.40 | 92 | 1004.6 |
| 20260506213509 | 60 | 224 | 7.8 | 13.9 | 0.04 | 0.39 | 0.39 | 92 | 1004.7 |
| 20260506213018 | 60 | 201 | 8.7 | 13.9 | 0.04 | 0.39 | 0.39 | 92 | 1004.6 |
| 20260506212509 | 60 | 221 | 6.1 | 13.0 | 0.04 | 0.39 | 0.39 | 92 | 1004.7 |
| 20260506212011 | 60 | 178 | 7.8 | 13.9 | 0.03 | 0.38 | 0.38 | 92 | 1004.6 |
| 20260506211525 | 60 | 178 | 5.2 | 13.9 | 0.03 | 0.38 | 0.38 | 92 | 1004.7 |
| 20260506211010 | 60 | 200 | 5.2 | 12.2 | 0.04 | 0.38 | 0.38 | 92 | 1004.8 |
| 20260506210511 | 60 | 210 | 7.0 | 15.6 | 0.04 | 0.38 | 0.38 | 92 | 1004.8 |
| 20260506210026 | 60 | 200 | 7.8 | 15.6 | 0.04 | 0.37 | 0.37 | 92 | 1004.7 |
| 20260506205511 | 60 | 191 | 7.0 | 13.0 | 0.04 | 0.37 | 0.37 | 92 | 1004.8 |
| 20260506205004 | 60 | 207 | 7.8 | 15.6 | 0.04 | 0.37 | 0.37 | 92 | 1004.9 |
| 20260506204512 | 60 | 169 | 8.7 | 15.6 | 0.03 | 0.36 | 0.36 | 92 | 1004.9 |
| 20260506204007 | 60 | 225 | 6.1 | 16.5 | 0.04 | 0.36 | 0.36 | 92 | 1004.8 |
| 20260506203507 | 60 | 202 | 8.7 | 18.2 | 0.03 | 0.35 | 0.35 | 91 | 1004.9 |
| 20260506203022 | 60 | 178 | 10.4 | 18.2 | 0.03 | 0.35 | 0.35 | 92 | 1004.9 |
| 20260506202511 | 61 | 232 | 8.7 | 18.2 | 0.04 | 0.35 | 0.35 | 92 | 1004.9 |
| 20260506202013 | 61 | 215 | 7.0 | 18.2 | 0.04 | 0.35 | 0.35 | 92 | 1004.9 |
| 20260506201522 | 61 | 209 | 7.0 | 13.9 | 0.05 | 0.35 | 0.35 | 92 | 1004.9 |
| 20260506201008 | 61 | 217 | 7.8 | 12.2 | 0.05 | 0.34 | 0.34 | 91 | 1004.9 |
| 20260506200507 | 61 | 229 | 7.8 | 13.0 | 0.07 | 0.34 | 0.34 | 91 | 1005.0 |
| 20260506200026 | 61 | 194 | 7.8 | 15.6 | 0.08 | 0.33 | 0.33 | 91 | 1005.1 |
| 20260506195511 | 61 | 182 | 7.8 | 15.6 | 0.10 | 0.33 | 0.33 | 91 | 1005.2 |
| 20260506195009 | 61 | 194 | 7.8 | 18.2 | 0.11 | 0.33 | 0.33 | 91 | 1005.3 |
| 20260506194526 | 61 | 212 | 8.7 | 17.4 | 0.12 | 0.33 | 0.33 | 92 | 1005.3 |
| 20260506194006 | 61 | 194 | 8.7 | 16.5 | 0.12 | 0.32 | 0.32 | 92 | 1005.3 |
| 20260506193506 | 61 | 191 | 7.0 | 16.5 | 0.12 | 0.32 | 0.32 | 92 | 1005.3 |
| 20260506193008 | 61 | 237 | 6.1 | 13.0 | 0.12 | 0.32 | 0.32 | 92 | 1005.4 |
| 20260506192503 | 61 | 240 | 7.8 | 13.9 | 0.12 | 0.31 | 0.31 | 92 | 1005.4 |
| 20260506192004 | 61 | 216 | 7.8 | 13.9 | 0.13 | 0.31 | 0.31 | 92 | 1005.5 |
| 20260506191507 | 61 | 207 | 5.2 | 12.2 | 0.12 | 0.30 | 0.30 | 92 | 1005.5 |
| 20260506191004 | 61 | 198 | 7.0 | 15.6 | 0.12 | 0.29 | 0.29 | 92 | 1005.5 |
| 20260506190504 | 61 | 208 | 7.8 | 15.6 | 0.11 | 0.27 | 0.27 | 92 | 1005.5 |
| 20260506190008 | 61 | 193 | 10.4 | 22.6 | 0.10 | 0.25 | 0.25 | 92 | 1005.5 |
| 20260506185503 | 61 | 196 | 10.4 | 21.7 | 0.09 | 0.23 | 0.23 | 92 | 1005.5 |
| 20260506185003 | 61 | 183 | 6.1 | 12.2 | 0.09 | 0.22 | 0.22 | 92 | 1005.6 |
| 20260506184508 | 61 | 245 | 5.2 | 13.9 | 0.09 | 0.21 | 0.21 | 92 | 1005.7 |
| 20260506184002 | 61 | 217 | 6.1 | 13.9 | 0.09 | 0.20 | 0.20 | 92 | 1005.7 |
| 20260506183503 | 61 | 205 | 6.1 | 13.0 | 0.10 | 0.20 | 0.20 | 92 | 1005.8 |
| 20260506183008 | 61 | 224 | 7.0 | 13.0 | 0.11 | 0.20 | 0.20 | 92 | 1005.8 |
| 20260506182502 | 61 | 165 | 7.0 | 12.2 | 0.11 | 0.19 | 0.19 | 92 | 1005.8 |
| 20260506182002 | 61 | 219 | 5.2 | 9.6 | 0.11 | 0.18 | 0.18 | 92 | 1006.0 |
| 20260506181510 | 61 | 220 | 6.1 | 10.4 | 0.11 | 0.18 | 0.18 | 92 | 1006.0 |
| 20260506181003 | 61 | 236 | 5.2 | 10.4 | 0.11 | 0.17 | 0.17 | 92 | 1006.0 |
| 20260506180503 | 61 | 229 | 3.5 | 9.6 | 0.11 | 0.16 | 0.16 | 92 | 1006.3 |
| 20260506180010 | 61 | 205 | 3.5 | 9.6 | 0.11 | 0.15 | 0.15 | 92 | 1006.4 |
| 20260506175504 | 61 | 202 | 2.6 | 6.1 | 0.10 | 0.14 | 0.14 | 92 | 1006.6 |
| 20260506175006 | 61 | 212 | 2.6 | 5.2 | 0.10 | 0.13 | 0.13 | 92 | 1006.8 |
| 20260506174512 | 61 | 190 | 2.6 | 5.2 | 0.10 | 0.12 | 0.12 | 91 | 1006.7 |
| 20260506174009 | 61 | 214 | 3.5 | 7.8 | 0.09 | 0.11 | 0.11 | 92 | 1006.9 |
| 20260506173504 | 61 | 200 | 5.2 | 7.8 | 0.09 | 0.10 | 0.10 | 91 | 1006.9 |
| 20260506173011 | 61 | 215 | 4.3 | 9.6 | 0.08 | 0.09 | 0.09 | 91 | 1007.1 |
| 20260506172503 | 61 | 219 | 2.6 | 9.6 | 0.07 | 0.08 | 0.08 | 91 | 1007.1 |
| 20260506172003 | 61 | 225 | 3.5 | 7.0 | 0.07 | 0.07 | 0.07 | 91 | 1007.1 |
| 20260506171521 | 61 | 225 | 2.6 | 7.8 | 0.07 | 0.07 | 0.07 | 91 | 1007.2 |
| 20260506171005 | 61 | 221 | 4.3 | 7.8 | 0.06 | 0.06 | 0.06 | 90 | 1007.3 |
| 20260506170504 | 61 | 221 | 2.6 | 10.4 | 0.05 | 0.05 | 0.05 | 90 | 1007.4 |
| 20260506170013 | 61 | 225 | 4.3 | 10.4 | 0.04 | 0.04 | 0.04 | 90 | 1007.4 |
| 20260506165503 | 61 | 229 | 5.2 | 8.7 | 0.04 | 0.04 | 0.04 | 90 | 1007.5 |
| 20260506165005 | 61 | 201 | 4.3 | 9.6 | 0.03 | 0.03 | 0.03 | 89 | 1007.3 |
| 20260506164512 | 62 | 203 | 4.3 | 10.4 | 0.02 | 0.02 | 0.02 | 88 | 1007.3 |
| 20260506164007 | 62 | 229 | 5.2 | 10.4 | 0.02 | 0.02 | 0.02 | 87 | 1007.3 |
| 20260506163502 | 62 | 220 | 5.2 | 10.4 | 0.01 | 0.01 | 0.01 | 87 | 1007.4 |
| 20260506163020 | 62 | 229 | 5.2 | 16.5 | 0.01 | 0.01 | 0.01 | 86 | 1007.4 |
| 20260506162503 | 62 | 203 | 7.0 | 16.5 | 0.01 | 0.01 | 0.01 | 85 | 1007.4 |
| 20260506162011 | 62 | 196 | 7.0 | 12.2 | 0.00 | 0.00 | 0.00 | 84 | 1007.4 |
| 20260506161520 | 62 | 205 | 7.0 | 14.8 | 0.00 | 0.00 | 0.00 | 84 | 1007.4 |
| 20260506161007 | 62 | 219 | 5.2 | 21.7 | 0.00 | 0.00 | 0.00 | 83 | 1007.5 |
| 20260506160505 | 63 | 205 | 11.3 | 20.9 | 0.00 | 0.00 | 0.00 | 82 | 1007.6 |
| 20260506160016 | 63 | 177 | 7.0 | 15.6 | 0.00 | 0.00 | 0.00 | 82 | 1007.6 |
| 20260506155506 | 63 | 214 | 7.8 | 17.4 | 0.00 | 0.00 | 0.00 | 81 | 1007.7 |
| 20260506155004 | 63 | 212 | 7.8 | 17.4 | 0.00 | 0.00 | 0.00 | 81 | 1007.7 |
| 20260506154512 | 63 | 190 | 8.7 | 14.8 | 0.00 | 0.00 | 0.00 | 81 | 1007.9 |
| 20260506154007 | 63 | 164 | 7.8 | 12.2 | 0.00 | 0.00 | 0.00 | 81 | 1008.0 |
| 20260506153506 | 63 | 200 | 6.1 | 12.2 | 0.00 | 0.00 | 0.00 | 80 | 1008.0 |
| 20260506153015 | 64 | 217 | 5.2 | 13.0 | 0.00 | 0.00 | 0.00 | 80 | 1008.0 |
| 20260506152506 | 64 | 221 | 7.0 | 13.0 | 0.00 | 0.00 | 0.00 | 78 | 1008.1 |
| 20260506152007 | 64 | 187 | 7.8 | 13.0 | 0.00 | 0.00 | 0.00 | 78 | 1008.1 |
| 20260506151517 | 64 | 209 | 6.1 | 12.2 | 0.00 | 0.00 | 0.00 | 78 | 1008.1 |
| 20260506151008 | 64 | 205 | 6.1 | 12.2 | 0.00 | 0.00 | 0.00 | 78 | 1008.1 |
| 20260506150503 | 63 | 236 | 5.2 | 10.4 | 0.00 | 0.00 | 0.00 | 79 | 1008.1 |
| 20260506150022 | 63 | 221 | 5.2 | 11.3 | 0.00 | 0.00 | 0.00 | 79 | 1008.3 |
| 20260506145505 | 63 | 202 | 6.1 | 13.0 | 0.00 | 0.00 | 0.00 | 79 | 1008.4 |
| 20260506145008 | 63 | 227 | 8.7 | 17.4 | 0.00 | 0.00 | 0.00 | 79 | 1008.4 |
| 20260506144516 | 63 | 189 | 9.6 | 17.4 | 0.00 | 0.00 | 0.00 | 79 | 1008.5 |
| 20260506144009 | 62 | 232 | 7.0 | 16.5 | 0.00 | 0.00 | 0.00 | 79 | 1008.4 |
| 20260506143506 | 62 | 189 | 9.6 | 16.5 | 0.00 | 0.00 | 0.00 | 79 | 1008.2 |
| 20260506143018 | 62 | 210 | 6.1 | 14.8 | 0.00 | 0.00 | 0.00 | 79 | 1008.4 |
| 20260506142509 | 62 | 231 | 9.6 | 14.8 | 0.00 | 0.00 | 0.00 | 78 | 1008.2 |
| 20260506142010 | 62 | 207 | 7.8 | 13.0 | 0.00 | 0.00 | 0.00 | 78 | 1008.2 |
| 20260506141517 | 62 | 236 | 7.0 | 17.4 | 0.00 | 0.00 | 0.00 | 78 | 1008.1 |
| 20260506141006 | 62 | 254 | 10.4 | 17.4 | 0.00 | 0.00 | 0.00 | 78 | 1008.4 |
| 20260506140507 | 62 | 231 | 7.8 | 15.6 | 0.00 | 0.00 | 0.00 | 78 | 1008.6 |
| 20260506140020 | 62 | 225 | 8.7 | 15.6 | 0.00 | 0.00 | 0.00 | 78 | 1008.4 |
| 20260506135507 | 62 | 219 | 7.0 | 14.8 | 0.00 | 0.00 | 0.00 | 79 | 1008.2 |
| 20260506135013 | 62 | 227 | 10.4 | 19.1 | 0.00 | 0.00 | 0.00 | 79 | 1008.1 |
| 20260506134543 | 62 | 231 | 10.4 | 19.1 | 0.00 | 0.00 | 0.00 | 79 | 1008.1 |
| 20260506133508 | 61 | 221 | 6.1 | 10.4 | 0.00 | 0.00 | 0.00 | 79 | 1008.1 |
| 20260506133022 | 61 | 221 | 3.5 | 10.4 | 0.00 | 0.00 | 0.00 | 81 | 1008.1 |
| 20260506132509 | 61 | 210 | 5.2 | 11.3 | 0.00 | 0.00 | 0.00 | 80 | 1007.9 |
| 20260506132007 | 61 | 224 | 5.2 | 11.3 | 0.00 | 0.00 | 0.00 | 81 | 1008.1 |
| 20260506131526 | 60 | 217 | 5.2 | 15.6 | 0.00 | 0.00 | 0.00 | 81 | 1008.2 |
| 20260506131008 | 60 | 221 | 7.8 | 15.6 | 0.00 | 0.00 | 0.00 | 81 | 1008.4 |
| 20260506130510 | 60 | 217 | 6.1 | 15.6 | 0.00 | 0.00 | 0.00 | 81 | 1008.5 |
| 20260506130020 | 60 | 203 | 9.6 | 16.5 | 0.00 | 0.00 | 0.00 | 81 | 1008.6 |
| 20260506125507 | 60 | 191 | 8.7 | 16.5 | 0.00 | 0.00 | 0.00 | 81 | 1008.6 |
| 20260506125008 | 60 | 208 | 7.0 | 20.0 | 0.00 | 0.00 | 0.00 | 81 | 1008.7 |
| 20260506124522 | 60 | 215 | 8.7 | 20.0 | 0.00 | 0.00 | 0.00 | 81 | 1008.7 |
| 20260506124007 | 60 | 189 | 8.7 | 16.5 | 0.00 | 0.00 | 0.00 | 81 | 1008.9 |
| 20260506123508 | 60 | 237 | 8.7 | 17.4 | 0.00 | 0.00 | 0.00 | 81 | 1008.9 |
| 20260506123020 | 60 | 203 | 8.7 | 17.4 | 0.00 | 0.00 | 0.00 | 81 | 1009.0 |
| 20260506122511 | 60 | 202 | 8.7 | 13.9 | 0.00 | 0.00 | 0.00 | 81 | 1008.8 |
| 20260506122007 | 60 | 229 | 7.0 | 13.9 | 0.00 | 0.00 | 0.00 | 81 | 1008.8 |
| 20260506121522 | 60 | 203 | 6.1 | 16.5 | 0.00 | 0.00 | 0.00 | 82 | 1008.7 |
| 20260506121009 | 60 | 203 | 7.8 | 16.5 | 0.00 | 0.00 | 0.00 | 81 | 1008.6 |
| 20260506120503 | 60 | 232 | 7.0 | 19.1 | 0.00 | 0.00 | 0.00 | 81 | 1008.4 |
| 20260506120025 | 60 | 219 | 10.4 | 18.2 | 0.00 | 0.00 | 0.00 | 82 | 1008.3 |
| 20260506115505 | 60 | 213 | 7.0 | 16.5 | 0.00 | 0.00 | 0.00 | 82 | 1008.3 |
| 20260506115012 | 60 | 198 | 8.7 | 15.6 | 0.00 | 0.00 | 0.00 | 82 | 1008.2 |
| 20260506114521 | 59 | 223 | 7.0 | 13.9 | 0.00 | 0.00 | 0.00 | 82 | 1008.6 |
| 20260506114006 | 59 | 205 | 7.8 | 13.0 | 0.00 | 0.00 | 0.00 | 83 | 1008.6 |
| 20260506113507 | 59 | 227 | 7.0 | 13.0 | 0.00 | 0.00 | 0.00 | 83 | 1008.6 |
| 20260506113019 | 59 | 178 | 6.1 | 13.0 | 0.00 | 0.00 | 0.00 | 83 | 1008.7 |
| 20260506112506 | 59 | 214 | 8.7 | 13.0 | 0.00 | 0.00 | 0.00 | 83 | 1008.8 |
| 20260506112014 | 59 | 213 | 6.1 | 11.3 | 0.00 | 0.00 | 0.00 | 84 | 1008.9 |
| 20260506111522 | 58 | 360 | 5.2 | 12.2 | 0.00 | 0.00 | 0.00 | 84 | 1008.9 |
| 20260506111006 | 58 | 232 | 4.3 | 12.2 | 0.00 | 0.00 | 0.00 | 84 | 1008.8 |
| 20260506110509 | 58 | 166 | 4.3 | 7.8 | 0.00 | 0.00 | 0.00 | 85 | 1008.7 |
| 20260506110026 | 57 | 209 | 1.7 | 7.0 | 0.00 | 0.00 | 0.00 | 86 | 1008.7 |
| 20260506105510 | 57 | 225 | 3.5 | 7.0 | 0.00 | 0.00 | 0.00 | 86 | 1008.8 |
| 20260506105010 | 57 | 236 | 3.5 | 7.0 | 0.00 | 0.00 | 0.00 | 87 | 1008.7 |
| 20260506104510 | 56 | 232 | 2.6 | 8.7 | 0.00 | 0.00 | 0.00 | 88 | 1008.7 |
| 20260506104002 | 54 | 221 | 4.3 | 8.7 | 0.00 | 0.00 | 0.00 | 89 | 1008.7 |
| 20260506103503 | 54 | 217 | 0.9 | 3.5 | 0.00 | 0.00 | 0.00 | 89 | 1008.7 |
| 20260506103022 | 54 | 119 | 0.9 | 3.5 | 0.00 | 0.00 | 0.00 | 89 | 1008.8 |
| 20260506102507 | 53 | 238 | 0.9 | 3.5 | 0.00 | 0.00 | 0.00 | 89 | 1008.8 |
| 20260506102010 | 53 | 238 | 0.9 | 3.5 | 0.00 | 0.00 | 0.00 | 89 | 1008.6 |
| 20260506101519 | 53 | 190 | 0.9 | 2.6 | 0.00 | 0.00 | 0.00 | 89 | 1008.7 |
| 20260506101007 | 53 | 227 | 0.9 | 3.5 | 0.00 | 0.00 | 0.00 | 89 | 1008.7 |
| 20260506100506 | 53 | 243 | 0.9 | 4.3 | 0.00 | 0.00 | 0.00 | 89 | 1008.6 |
| 20260506100031 | 52 | 238 | 1.7 | 4.3 | 0.00 | 0.00 | 0.00 | 89 | 1008.6 |
| 20260506095507 | 52 | 221 | 0.0 | 1.7 | 0.00 | 0.00 | 0.00 | 90 | 1008.6 |
| 20260506095009 | 52 | 325 | 0.0 | 1.7 | 0.00 | 0.00 | 0.00 | 90 | 1008.7 |
| 20260506094524 | 52 | 26 | 0.9 | 1.7 | 0.00 | 0.00 | 0.00 | 89 | 1008.6 |
| 20260506094009 | 52 | 80 | 0.0 | 1.7 | 0.00 | 0.00 | 0.00 | 89 | 1008.6 |
| 20260506093509 | 52 | 221 | 0.0 | 1.7 | 0.00 | 0.00 | 0.00 | 89 | 1008.6 |
| 20260506093013 | 52 | 238 | 0.9 | 1.7 | 0.00 | 0.00 | 0.00 | 89 | 1008.6 |
| 20260506092507 | 52 | 265 | 0.0 | 1.7 | 0.00 | 0.00 | 0.00 | 89 | 1008.5 |
| 20260506092007 | 53 | 221 | 0.0 | 1.7 | 0.00 | 0.00 | 0.00 | 89 | 1008.6 |
| 20260506091519 | 53 | 238 | 0.0 | 1.7 | 0.00 | 0.00 | 0.00 | 88 | 1008.5 |
| 20260506091003 | 53 | 221 | 0.0 | 1.7 | 0.00 | 0.00 | 0.00 | 88 | 1008.7 |
| 20260506090502 | 53 | 238 | 0.0 | 2.6 | 0.00 | 0.00 | 0.00 | 88 | 1008.7 |
| 20260506090006 | 53 | 247 | 0.0 | 2.6 | 0.00 | 0.00 | 0.00 | 88 | 1008.7 |
| 20260506085501 | 53 | 279 | 0.0 | 1.7 | 0.00 | 0.00 | 0.00 | 87 | 1008.6 |
| 20260506085003 | 54 | 298 | 0.9 | 1.7 | 0.00 | 0.00 | 0.00 | 87 | 1008.6 |
| 20260506084504 | 54 | 9 | 0.0 | 1.7 | 0.00 | 0.00 | 0.00 | 87 | 1008.6 |
| 20260506084004 | 54 | 178 | 0.0 | 1.7 | 0.00 | 0.00 | 0.00 | 86 | 1008.6 |
| 20260506083504 | 54 | 51 | 0.0 | 1.7 | 0.00 | 0.00 | 0.00 | 86 | 1008.8 |
| 20260506083011 | 54 | 221 | 0.0 | 1.7 | 0.00 | 0.00 | 0.00 | 86 | 1008.8 |
| 20260506082506 | 54 | 221 | 0.9 | 2.6 | 0.00 | 0.00 | 0.00 | 85 | 1008.7 |
| 20260506082006 | 55 | 243 | 0.9 | 2.6 | 0.00 | 0.00 | 0.00 | 86 | 1008.7 |
| 20260506081521 | 54 | 265 | 1.7 | 2.6 | 0.00 | 0.00 | 0.00 | 84 | 1008.7 |
| 20260506081010 | 55 | 247 | 1.7 | 2.6 | 0.00 | 0.00 | 0.00 | 83 | 1008.7 |
| 20260506080507 | 56 | 265 | 0.9 | 2.6 | 0.00 | 0.00 | 0.00 | 83 | 1008.7 |
| 20260506073506 | 58 | 93 | 0.9 | 3.5 | 0.00 | 0.00 | 0.00 | 78 | 1008.9 |
| 20260506073007 | 58 | 9 | 1.7 | 3.5 | 0.00 | 0.00 | 0.00 | 78 | 1009.1 |
| 20260506072504 | 58 | 243 | 0.9 | 4.3 | 0.00 | 0.00 | 0.00 | 78 | 1009.0 |
| 20260506072004 | 59 | 282 | 0.9 | 4.3 | 0.00 | 0.00 | 0.00 | 77 | 1008.9 |
| 20260506071513 | 59 | 205 | 1.7 | 4.3 | 0.00 | 0.00 | 0.00 | 77 | 1008.9 |
| 20260506071009 | 59 | 178 | 0.9 | 4.3 | 0.00 | 0.00 | 0.00 | 77 | 1008.8 |
| 20260506070504 | 59 | 137 | 1.7 | 4.3 | 0.00 | 0.00 | 0.00 | 77 | 1008.9 |
| 20260506062503 | 60 | 190 | 1.7 | 3.5 | 0.00 | 0.00 | 0.00 | 73 | 1008.7 |
| 20260506062003 | 60 | 212 | 1.7 | 3.5 | 0.00 | 0.00 | 0.00 | 72 | 1008.7 |
| 20260506061511 | 61 | 188 | 1.7 | 4.3 | 0.00 | 0.00 | 0.00 | 72 | 1008.7 |
| 20260506061004 | 61 | 221 | 1.7 | 6.1 | 0.00 | 0.00 | 0.00 | 72 | 1008.8 |
| 20260506060506 | 61 | 232 | 2.6 | 7.8 | 0.00 | 0.00 | 0.00 | 70 | 1008.8 |
| 20260506051003 | 63 | 201 | 7.0 | 13.0 | 0.00 | 0.00 | 0.00 | 67 | 1008.9 |
| 20260506050504 | 63 | 223 | 7.0 | 13.0 | 0.00 | 0.00 | 0.00 | 67 | 1008.9 |
| 20260506045004 | 63 | 196 | 5.2 | 12.2 | 0.00 | 0.00 | 0.00 | 66 | 1008.9 |
| 20260506044518 | 64 | 195 | 5.2 | 12.2 | 0.00 | 0.00 | 0.00 | 66 | 1008.9 |
| 20260506044008 | 64 | 168 | 7.8 | 16.5 | 0.00 | 0.00 | 0.00 | 65 | 1009.0 |
| 20260506043508 | 64 | 208 | 6.1 | 16.5 | 0.00 | 0.00 | 0.00 | 65 | 1008.9 |
| 20260506043026 | 64 | 170 | 8.7 | 18.2 | 0.00 | 0.00 | 0.00 | 65 | 1009.0 |
| 20260506042508 | 64 | 207 | 11.3 | 18.2 | 0.00 | 0.00 | 0.00 | 65 | 1008.9 |
| 20260506042012 | 65 | 236 | 7.0 | 16.5 | 0.00 | 0.00 | 0.00 | 65 | 1008.9 |
| 20260506041523 | 65 | 211 | 7.8 | 16.5 | 0.00 | 0.00 | 0.00 | 65 | 1008.9 |
| 20260506041010 | 65 | 187 | 7.0 | 15.6 | 0.00 | 0.00 | 0.00 | 65 | 1008.8 |
| 20260506040509 | 65 | 196 | 8.7 | 13.9 | 0.00 | 0.00 | 0.00 | 65 | 1008.9 |
| 20260506040008 | 65 | 196 | 7.8 | 15.6 | 0.00 | 0.00 | 0.00 | 65 | 1008.9 |
| 20260506035503 | 65 | 221 | 8.7 | 15.6 | 0.00 | 0.00 | 0.00 | 65 | 1008.9 |
| 20260506035004 | 65 | 202 | 6.1 | 14.8 | 0.00 | 0.00 | 0.00 | 66 | 1008.9 |
| 20260506034512 | 65 | 196 | 7.0 | 19.1 | 0.00 | 0.00 | 0.00 | 65 | 1008.8 |
| 20260506034007 | 66 | 220 | 8.7 | 19.1 | 0.00 | 0.00 | 0.00 | 65 | 1009.0 |
| 20260506033508 | 66 | 196 | 9.6 | 17.4 | 0.00 | 0.00 | 0.00 | 65 | 1008.9 |
| 20260506033028 | 66 | 184 | 7.8 | 12.2 | 0.00 | 0.00 | 0.00 | 66 | 1008.8 |
| 20260506032509 | 66 | 194 | 6.1 | 10.4 | 0.00 | 0.00 | 0.00 | 66 | 1008.7 |
| 20260506032009 | 66 | 182 | 5.2 | 9.6 | 0.00 | 0.00 | 0.00 | 66 | 1008.8 |
| 20260506031529 | 66 | 217 | 5.2 | 10.4 | 0.00 | 0.00 | 0.00 | 66 | 1008.8 |
| 20260506031009 | 66 | 234 | 5.2 | 12.2 | 0.00 | 0.00 | 0.00 | 66 | 1008.9 |